Allison, TX (79003)

9:23 PM CST on February 08, 2016 (GMT -0600)
Hemphill County | | Change Station
CLOSE
Current Station
Airport
Location: Canadian,
Elevation: 2395 ft
Nearby Weather Stations

Elev 2395 ft 35.89 °N, 100.40 °W | Updated 8 minutes ago

Clear
Clear
30 °F
Feels Like 26 °F
N
4
Wind Variable Wind from West

Today
High -- | Low -- °F
--% Chance of Precip.
Yesterday
High -- | Low -- °F
Precip. -- in
Pressure 30.34 in
Visibility 10.0 miles
Clouds Clear
Windchill 26 °F
Dew Point 12 °F
Humidity 47%
Rainfall 0.00 in
Snow Depth Not available.
7:34 AM 6:15 PM
New Moon, 0% visible
METAR KHHF 090315Z AUTO 26003KT 10SM CLR M01/M11 A3034 RMK AO2 T10121112
Pressure 30.34 in
Visibility 10.0 miles
Clouds Clear
Windchill 26 °F
Dew Point 12 °F
Humidity 47%
Rainfall 0.00 in
Snow Depth Not available.
7:34 AM 6:15 PM
New Moon, 0% visible
METAR KHHF 090315Z AUTO 26003KT 10SM CLR M01/M11 A3034 RMK AO2 T10121112

10-Day Weather Forecast

Almanac

Astronomy

Feb. 08, 2016 Rise Set
Actual Time
Civil Twilight
Nautical Twilight
Astronomical Twilight
Moon
Length of Visible Light
Length of Day
Tomorrow will be .
, % of the Moon is Illuminated

Today's Extremes

State Highs State Lows

Community

WunderPhotos

Upload Photos

1,891,527 photos uploaded!

WunderBlog® & News

Nearby

Air Quality

  Air Quality AQ Index Pollutant
Not available.

Snow Depth

Station Depth Elevation

Earthquake Activity

City Distance Mag. Time & Date
Minimum magnitude displayed is 2.5.

Coastal Water Temperatures

Place Temperature

Stations

Nearby Weather Stations

Station Location Temp. Windchill Dew Point Humidity Wind Precip. Elev Updated Type
                   

Watches & Warnings

There are currently no watches in effect.